Preview of NWS' New Version of Forecast
This preview is not operational and should not be used for support decisions.

Regional Weather Roundup (RWR)

Issued by National Weather Service (NWS)

                            
000
ASUS42 KTBW 212318
RWRFL 
FLORIDA REGIONAL WEATHER ROUNDUP
NATIONAL WEATHER SERVICE TAMPA BAY RUSKIN FL
700 PM EDT WED AUG 21 2019

NOTE: "FAIR" INDICATES FEW OR NO CLOUDS BELOW 12,000 FEET WITH NO
SIGNIFICANT WEATHER AND/OR OBSTRUCTIONS TO VISIBILITY.

FLZ001>010-012>015-112-114-115-220000-
PANHANDLE FLORIDA
  
CITY           SKY/WX    TMP DP  RH WIND       PRES   REMARKS
PENSACOLA      FAIR      84  78  82 E5        30.03F HX  95           
PENSACOLA NAS  PTSUNNY   85  78  80 SE8       30.03F HX  96           
MILTON NAS     PTSUNNY   81  76  84 E5        30.05S                  
CRESTVIEW      FAIR      79  74  84 N5        30.06F                  
DUKE FIELD     FAIR      79  74  86 SE3       30.04F                  
VALPARAISO     PTSUNNY   82  72  71 SE7       30.03F                  
TRI COUNTY     FAIR      77  73  87 SE6       30.06F                  
PANAMA CITY    FAIR      77  74  90 NE3       30.04F                  
TYNDALL AFB    FAIR      79  75  87 E3        30.04F                  
APALACHICOLA   FAIR      84  75  74 N7        30.06R                  

STATION/POSITION SKY/WX   TEMP    WIND        PRES    WAVE   SWELL
                          AIR SEA DIR/SP/G            HT/PER HT/PER
                          (F)     (DEG/KT/KT) (MB)    (FT/S) (FT/S)
30.1N   87.6W              85 87  120/  8/ 10 1017.2F   1/ 5   2/ 5
29.2N   88.2W              85 86   80/  4/  6 1017.2R   2/ 6   2/ 6
28.8N   86.0W                 86   40/  4/  6 1017.1F   2/ 5   2/ 5
PANAMA CITY BEAC           81 87  110/  8/ 10 1018.1
TOWER C                    83     150/  9/ 10 1017.6F
28.5N   84.5W              84     130/  6/  8 1017.7F   2/ 5   2/ 5

$$
FLZ011-016>038-118-127-128-134-139-239-220000-
NORTH FLORIDA
  
CITY           SKY/WX    TMP DP  RH WIND       PRES   REMARKS
MARIANNA       PTSUNNY   77  74  90 SW5       30.05F                  
TALLAHASSEE    PTSUNNY   84  77  79 S5        30.06S                  
PERRY          FAIR      86  75  70 W7        30.06S THUNDER HX  95   
LIVE OAK       SUNNY     84  77  79 CALM      30.05R                  
CROSS CITY     PTSUNNY   87  77  71 W5        30.04R HX  99           
LAKE CITY      FAIR      90  68  48 CALM      30.04F                  
GAINESVILLE    FAIR      86  73  65 E7        30.07R THUNDER          
WILLISTON      FAIR      84  76  75 SE7       30.04R                  
MAYPORT NAS    FAIR      85  75  72 SE10      30.06S                  
JACKSONVILLE   FAIR      87  71  58 SE12      30.05R                  
JAX NAS        PTSUNNY   89  72  56 E13       30.06S HX  96           
JAX CECIL      MOSUNNY   88  73  62 SE12      30.05S HX  96           
FERNANDINA BEA FAIR      85  77  76 MISG      30.06S HX  95           
ST AUGUSTINE   FAIR      84  76  76 SE12      30.07S                  
PALM COAST     MOSUNNY   84  75  74 E9        30.06S                  

STATION/POSITION SKY/WX   TEMP    WIND        PRES    WAVE   SWELL
                          AIR SEA DIR/SP/G            HT/PER HT/PER
                          (F)     (DEG/KT/KT) (MB)    (FT/S) (FT/S)
SHELL POINT      NOT AVBL
KEATON BEACH               84     260/  7/  8 1017.6R
CEDAR KEY                  85     300/  6/  7 1017.4F
FERNANDINA                 90 85              1018.5
30.7N   81.3W                 84                N/A     2/10
MAYPORT                    85 85  130/  7/ 11 1018.4
31.4N   80.9W              83 84  190/ 10/ 12 1017.8F   2/10   2/10
ST AUGUSTINE               83 85  120/  9/ 10 1018.2S

$$
FLZ040-043>046-052-053-057-058-063-144-220000-
INTERIOR CENTRAL FLORIDA
  
CITY           SKY/WX    TMP DP  RH WIND       PRES   REMARKS
OCALA          FAIR      84  71  65 NE8       30.04S                  
LEESBURG       PTSUNNY   90  72  55 E10       30.04S HX  97           
SANFORD        FAIR      87  73  62 E12       30.05R                  
ORLANDO EXEC   FAIR      87  72  60 E12       30.04S                  
ORLANDO INTL   PTSUNNY   86  72  62 E14       30.04S                  
KISSIMMEE      PTSUNNY   87  75  67 SE9       30.05R HX  96           
WINTER HAVEN   FAIR      88  74  63 SE12      30.05S HX  96           
LAKELAND       PTSUNNY   88  72  58 SE13      30.03S                  
SEBRING        CLOUDY    80  75  84 W7        30.04R                  
OKEECHOBEE     FAIR      84  72  65 E7        30.03S                  

$$
FLZ041-047-054-059-064-141-147-220000-
EAST CENTRAL FLORIDA
  
CITY           SKY/WX    TMP DP  RH WIND       PRES   REMARKS
ORMOND BEACH   MOSUNNY   84  75  74 E8        30.06S                  
DAYTONA BEACH  FAIR      84  74  71 E7        30.06S                  
DELAND         FAIR      84  73  70 E9        30.05R                  
NEW SMYRNA BEA MOSUNNY   84  75  74 SE12      30.07S                  
JFK SPACE CTR  FAIR      85  55  35 E8        30.04F                  
TITUSVILLE     MOSUNNY   91  75  59 SE10      30.07S HX 102           
CAPE CANAVERAL FAIR      85  78  77 CALM      30.04F HX  97           
PATRICK AFB    FAIR      85  78  78 E12       30.05S HX  97           
MELBOURNE      FAIR      86  75  69 E12       30.05S HX  95           
VERO BEACH     FAIR      84  74  71 E9        30.04F                  
FT PIERCE      FAIR      84  73  69 E13       30.03F                  
STUART         MOSUNNY   84  73  70 E12       30.05F                  

STATION/POSITION SKY/WX   TEMP    WIND        PRES    WAVE   SWELL
                          AIR SEA DIR/SP/G            HT/PER HT/PER
                          (F)     (DEG/KT/KT) (MB)    (FT/S) (FT/S)
28.5N   80.2W              84 85   80/ 12/ 14 1017.5F   2/ 7   2/ 7
28.9N   78.5W              85 87  110/ 10/ 12 1018.6F   2/11   2/11
TRIDENT PIER               86 83   90/  5/ 10 1019.2
28.4N   80.5W                 83                N/A     2/10
27.5N   80.2W                 85                N/A     2/11

$$
FLZ050-056-061-142-242-148-248-149-249-151-251-155-255-
160-260-220000-
WEST CENTRAL FLORIDA
  
CITY           SKY/WX    TMP DP  RH WIND       PRES   REMARKS
CRYSTAL RIVER  FAIR      88  75  66 W7        30.03S HX  97           
INVERNESS      FAIR      86  81  84 CALM      30.03S HX 102           
BROOKSVILLE    TSTM      78  73  84 SW13G20   30.04R                  
CLEARWATER AIR FAIR      86  73  66 W6        30.03R                  
ST PETE CLEARW FAIR      88  74  63 SW8       30.02S HX  96           
TAMPA INTL     PTSUNNY   89  72  56 W8        30.02S HX  96           
PLANT CITY     PTSUNNY   88  77  70 E8        30.05R HX 100           
MACDILL AFB    FAIR      87  76  68 SW9       30.02S HX  98           
PETER O KNIGHT PTSUNNY   90  77  66 SW8       30.02R HX 102           
ST PETERSBURG  FAIR      87  75  67 W9        30.01S HX  96           
SARASOTA       LGT RAIN  85  77  77 W3        30.01S HX  95           
VENICE         FAIR      88  75  66 W6        30.02S HX  97           

STATION/POSITION SKY/WX   TEMP    WIND        PRES    WAVE   SWELL
                          AIR SEA DIR/SP/G            HT/PER HT/PER
                          (F)     (DEG/KT/KT) (MB)    (FT/S) (FT/S)
27.3N   84.2W                 85                N/A     2/ 5
CLEARWATER BEACH           85 88  250/  9/ 10 1017.1
MIDDLE TAMPA BAY           84     260/  9/ 10 1017.0
VENICE                     85 85  270/  7/  8 1016.3F

$$
FLZ066-069-070-075>078-162-262-165-265-220000-
SOUTHWEST FLORIDA AND KEYS
  
CITY           SKY/WX    TMP DP  RH WIND       PRES   REMARKS
PUNTA GORDA    PTSUNNY   91  72  53 NW5       30.02S HX  98           
FT MYERS       TSTM      78  71  79 SW12      30.02S                  
SOUTHWEST INTL FAIR      81  74  79 NW3       30.02R                  
NAPLES         PTSUNNY   88  74  63 S9        30.02R THUNDER HX  96   
MARCO ISLAND   LGT RAIN N/A N/A N/A NW6         N/A                   
IMMOKALEE      FAIR      77  75  94 NE7       30.01R                  
MARATHON       FAIR      87  73  62 VRB6      30.02S                  
KEY WEST NAS   PTSUNNY   85  75  72 SE7       30.01F                  
KEY WEST INTL  FAIR      83  74  74 SE7       30.01F                  

STATION/POSITION SKY/WX   TEMP    WIND        PRES    WAVE   SWELL
                          AIR SEA DIR/SP/G            HT/PER HT/PER
                          (F)     (DEG/KT/KT) (MB)    (FT/S) (FT/S)
NAPLES                     89 89              1016.2
26.0N   85.6W              85 87  170/  2/  4 1016.2F   2/ 7   2/ 7
DRY TORTUGAS               83      90/  8/ 10 1016.2F
SAND KEY                   81     110/  6/  8 1015.3F
SOMBRERO KEY               84     150/  6/  8 1017.0F
LONG KEY                   86                 1015.9F

$$
FLZ067-068-071>074-168-172>174-220000-
SOUTHEAST FLORIDA 
  
CITY           SKY/WX    TMP DP  RH WIND       PRES   REMARKS
W PALM BEACH   FAIR      85  73  67 E12       30.05R                  
BOCA RATON     MOSUNNY   86  73  66 SE9       30.04R                  
FT LAUDER-EXEC FAIR      85  74  69 E10       30.04R                  
FT LAUDERDALE  PTSUNNY   85  73  67 E12       30.03R                  
POMPANO BEACH  FAIR      86  75  69 E13       30.04R HX  95           
PEMBROKE PINES FAIR      85  74  69 E13       30.05R                  
OPA LOCKA      FAIR      85  75  72 E14       30.04R                  
MIAMI          PTSUNNY   87  70  56 E8        30.03S                  
WEST KENDALL   FAIR      84  73  69 E8        30.03S                  
HOMESTEAD      FAIR      84  73  69 E5        30.03S                  

STATION/POSITION SKY/WX   TEMP    WIND        PRES    WAVE   SWELL
                          AIR SEA DIR/SP/G            HT/PER HT/PER
                          (F)     (DEG/KT/KT) (MB)    (FT/S) (FT/S)
VIRGINIA KEY               85 89   50/  6/  8 1017.0
LAKE WORTH                 84 87   80/ 10/ 12 1018.5
FOWEY ROCKS                82 86   80/ 12/ 13 1017.5R
SETTLEMENT POINT           80      90/ 13/ 15 1017.8F

$$